Time,TemperatureF,DewpointF,PressureIn,WindDirection,WindDirectionDegrees,WindSpeedMPH,WindSpeedGustMPH,Humidity,HourlyPrecipIn,Conditions,Clouds,dailyrainin,SoftwareType,DateUTC
2013-08-25 00:00:00,69.1,63.7,30.17,East,93,0.0,0.0,83,0.00,,CLR,0.00,VWS V14.01,2013-08-25 05:00:00,
2013-08-25 00:05:00,69.0,63.6,30.17,East,93,0.0,0.0,83,0.00,,CLR,0.00,VWS V14.01,2013-08-25 05:05:00,
2013-08-25 00:10:00,69.0,63.6,30.17,East,93,0.0,0.0,83,0.00,,CLR,0.00,VWS V14.01,2013-08-25 05:10:00,
2013-08-25 00:15:00,68.9,63.5,30.17,East,93,0.0,0.0,83,0.00,,CLR,0.00,VWS V14.01,2013-08-25 05:15:00,
2013-08-25 00:20:00,68.8,63.4,30.17,East,93,0.0,0.0,83,0.00,,CLR,0.00,VWS V14.01,2013-08-25 05:20:00,
2013-08-25 00:25:00,68.7,63.3,30.17,East,93,0.0,0.0,83,0.00,,CLR,0.00,VWS V14.01,2013-08-25 05:25:00,
2013-08-25 00:30:00,68.6,63.2,30.17,East,93,0.0,0.0,83,0.00,,CLR,0.00,VWS V14.01,2013-08-25 05:30:00,
2013-08-25 00:35:00,68.5,63.1,30.18,East,93,0.0,0.0,83,0.00,,CLR,0.00,VWS V14.01,2013-08-25 05:35:00,
2013-08-25 00:41:00,68.4,63.0,30.18,East,93,0.0,0.0,83,0.00,,CLR,0.00,VWS V14.01,2013-08-25 05:41:00,
2013-08-25 00:46:00,68.3,62.9,30.18,East,93,0.0,0.0,83,0.00,,CLR,0.00,VWS V14.01,2013-08-25 05:46:00,
2013-08-25 00:51:00,68.2,62.8,30.18,East,93,0.0,0.0,83,0.00,,CLR,0.00,VWS V14.01,2013-08-25 05:51:00,
2013-08-25 00:56:00,68.1,62.8,30.18,East,93,0.0,0.0,83,0.00,,CLR,0.00,VWS V14.01,2013-08-25 05:56:00,
2013-08-25 01:01:00,67.9,62.5,30.18,East,93,0.0,0.0,83,0.00,,CLR,0.00,VWS V14.01,2013-08-25 06:01:00,
2013-08-25 01:06:00,67.8,62.5,30.18,East,93,0.0,0.0,83,0.00,,CLR,0.00,VWS V14.01,2013-08-25 06:06:00,
2013-08-25 01:11:00,67.7,62.7,30.18,East,93,0.0,0.0,84,0.00,,CLR,0.00,VWS V14.01,2013-08-25 06:11:00,
2013-08-25 01:16:00,67.6,62.6,30.18,East,93,0.0,0.0,84,0.00,,CLR,0.00,VWS V14.01,2013-08-25 06:16:00,
2013-08-25 01:21:00,67.4,62.4,30.18,East,93,0.0,0.0,84,0.00,,CLR,0.00,VWS V14.01,2013-08-25 06:21:00,
2013-08-25 01:26:00,67.3,62.3,30.18,East,93,0.0,0.0,84,0.00,,CLR,0.00,VWS V14.01,2013-08-25 06:26:00,
2013-08-25 01:31:00,67.1,62.1,30.18,East,93,0.0,0.0,84,0.00,,CLR,0.00,VWS V14.01,2013-08-25 06:31:00,
2013-08-25 01:36:00,67.0,62.0,30.17,East,93,0.0,0.0,84,0.00,,CLR,0.00,VWS V14.01,2013-08-25 06:36:00,
2013-08-25 01:41:00,66.9,61.9,30.18,East,93,0.0,0.0,84,0.00,,CLR,0.00,VWS V14.01,2013-08-25 06:41:00,
2013-08-25 01:46:00,66.9,61.9,30.17,East,93,0.0,0.0,84,0.00,,CLR,0.00,VWS V14.01,2013-08-25 06:46:00,
2013-08-25 01:51:00,66.8,61.8,30.17,East,93,0.0,0.0,84,0.00,,CLR,0.00,VWS V14.01,2013-08-25 06:51:00,
2013-08-25 01:56:00,66.7,61.7,30.17,East,93,0.0,0.0,84,0.00,,CLR,0.00,VWS V14.01,2013-08-25 06:56:00,
2013-08-25 02:01:00,66.6,61.6,30.18,East,93,0.0,0.0,84,0.00,,CLR,0.00,VWS V14.01,2013-08-25 07:01:00,
2013-08-25 02:06:00,66.5,61.5,30.18,East,93,0.0,0.0,84,0.00,,CLR,0.00,VWS V14.01,2013-08-25 07:06:00,
2013-08-25 02:11:00,66.4,61.8,30.18,East,93,0.0,0.0,85,0.00,,CLR,0.00,VWS V14.01,2013-08-25 07:11:00,
2013-08-25 02:16:00,66.3,61.7,30.18,East,93,0.0,0.0,85,0.00,,CLR,0.00,VWS V14.01,2013-08-25 07:16:00,
2013-08-25 02:21:00,66.2,61.6,30.18,East,93,0.0,0.0,85,0.00,,CLR,0.00,VWS V14.01,2013-08-25 07:21:00,
2013-08-25 02:26:00,66.1,61.5,30.18,East,93,0.0,0.0,85,0.00,,CLR,0.00,VWS V14.01,2013-08-25 07:26:00,
2013-08-25 02:31:00,66.1,61.5,30.18,East,93,0.0,0.0,85,0.00,,CLR,0.00,VWS V14.01,2013-08-25 07:31:00,
2013-08-25 02:36:00,66.0,61.4,30.18,East,93,0.0,0.0,85,0.00,,CLR,0.00,VWS V14.01,2013-08-25 07:36:00,
2013-08-25 02:41:00,66.0,61.4,30.18,East,93,0.0,0.0,85,0.00,,CLR,0.00,VWS V14.01,2013-08-25 07:41:00,
2013-08-25 02:46:00,65.9,61.3,30.18,East,93,0.0,0.0,85,0.00,,CLR,0.00,VWS V14.01,2013-08-25 07:46:00,
2013-08-25 02:51:00,65.9,61.3,30.18,East,93,0.0,0.0,85,0.00,,CLR,0.00,VWS V14.01,2013-08-25 07:51:00,
2013-08-25 02:56:00,65.8,61.2,30.18,East,93,0.0,0.0,85,0.00,,CLR,0.00,VWS V14.01,2013-08-25 07:56:00,
2013-08-25 03:01:00,65.7,61.1,30.18,East,93,0.0,0.0,85,0.00,,CLR,0.00,VWS V14.01,2013-08-25 08:01:00,
2013-08-25 03:06:00,65.7,61.1,30.19,East,93,0.0,0.0,85,0.00,,CLR,0.00,VWS V14.01,2013-08-25 08:06:00,
2013-08-25 03:11:00,65.6,61.0,30.19,East,93,0.0,0.0,85,0.00,,CLR,0.00,VWS V14.01,2013-08-25 08:11:00,
2013-08-25 03:16:00,65.4,60.8,30.19,East,93,0.0,0.0,85,0.00,,CLR,0.00,VWS V14.01,2013-08-25 08:16:00,
2013-08-25 03:21:00,65.3,60.7,30.19,East,93,0.0,0.0,85,0.00,,CLR,0.00,VWS V14.01,2013-08-25 08:21:00,
2013-08-25 03:26:00,65.2,60.6,30.18,East,93,0.0,0.0,85,0.00,,CLR,0.00,VWS V14.01,2013-08-25 08:26:00,
2013-08-25 03:31:00,65.1,60.5,30.19,East,93,0.0,0.0,85,0.00,,CLR,0.00,VWS V14.01,2013-08-25 08:31:00,
2013-08-25 03:36:00,65.0,60.4,30.19,East,93,0.0,0.0,85,0.00,,CLR,0.00,VWS V14.01,2013-08-25 08:36:00,
2013-08-25 03:41:00,64.9,60.6,30.19,East,93,0.0,0.0,86,0.00,,CLR,0.00,VWS V14.01,2013-08-25 08:41:00,
2013-08-25 03:46:00,64.8,60.5,30.19,East,93,0.0,0.0,86,0.00,,CLR,0.00,VWS V14.01,2013-08-25 08:46:00,
2013-08-25 03:51:00,64.8,60.5,30.19,East,93,0.0,0.0,86,0.00,,CLR,0.00,VWS V14.01,2013-08-25 08:51:00,
2013-08-25 03:56:00,64.7,60.4,30.19,East,93,0.0,0.0,86,0.00,,CLR,0.00,VWS V14.01,2013-08-25 08:56:00,
2013-08-25 04:01:00,64.6,60.3,30.19,East,93,0.0,0.0,86,0.00,,CLR,0.00,VWS V14.01,2013-08-25 09:01:00,
2013-08-25 04:06:00,64.6,60.3,30.20,East,93,0.0,0.0,86,0.00,,CLR,0.00,VWS V14.01,2013-08-25 09:06:00,
2013-08-25 04:11:00,64.5,60.2,30.20,East,93,0.0,0.0,86,0.00,,CLR,0.00,VWS V14.01,2013-08-25 09:11:00,
2013-08-25 04:16:00,64.5,60.2,30.20,East,93,0.0,0.0,86,0.00,,CLR,0.00,VWS V14.01,2013-08-25 09:16:00,
2013-08-25 04:21:00,64.4,60.1,30.20,East,93,0.0,0.0,86,0.00,,CLR,0.00,VWS V14.01,2013-08-25 09:21:00,
2013-08-25 04:26:00,64.5,60.2,30.20,East,93,0.0,0.0,86,0.00,,CLR,0.00,VWS V14.01,2013-08-25 09:26:00,
2013-08-25 04:31:00,64.4,60.1,30.21,East,93,0.0,0.0,86,0.00,,CLR,0.00,VWS V14.01,2013-08-25 09:31:00,
2013-08-25 04:36:00,64.3,60.0,30.21,East,93,0.0,0.0,86,0.00,,CLR,0.00,VWS V14.01,2013-08-25 09:36:00,
2013-08-25 04:41:00,64.3,60.0,30.21,East,93,0.0,0.0,86,0.00,,CLR,0.00,VWS V14.01,2013-08-25 09:41:00,
2013-08-25 04:46:00,64.2,59.9,30.21,East,93,0.0,0.0,86,0.00,,CLR,0.00,VWS V14.01,2013-08-25 09:46:00,
2013-08-25 04:51:00,64.2,59.9,30.21,East,93,0.0,0.0,86,0.00,,CLR,0.00,VWS V14.01,2013-08-25 09:51:00,
2013-08-25 04:56:00,64.1,59.8,30.21,East,93,0.0,0.0,86,0.00,,CLR,0.00,VWS V14.01,2013-08-25 09:56:00,
2013-08-25 05:01:00,64.0,59.7,30.21,East,93,0.0,0.0,86,0.00,,CLR,0.00,VWS V14.01,2013-08-25 10:01:00,
2013-08-25 05:06:00,64.0,59.7,30.21,East,93,0.0,0.0,86,0.00,,CLR,0.00,VWS V14.01,2013-08-25 10:06:00,
2013-08-25 05:11:00,64.0,59.7,30.21,East,93,0.0,0.0,86,0.00,,CLR,0.00,VWS V14.01,2013-08-25 10:11:00,
2013-08-25 05:16:00,64.0,59.7,30.21,East,93,0.0,0.0,86,0.00,,CLR,0.00,VWS V14.01,2013-08-25 10:16:00,
2013-08-25 05:21:00,64.0,59.7,30.21,East,93,0.0,0.0,86,0.00,,CLR,0.00,VWS V14.01,2013-08-25 10:21:00,
2013-08-25 05:26:00,64.0,59.7,30.21,East,93,0.0,0.0,86,0.00,,CLR,0.00,VWS V14.01,2013-08-25 10:26:00,
2013-08-25 05:31:00,64.0,59.7,30.21,East,93,0.0,0.0,86,0.00,,CLR,0.00,VWS V14.01,2013-08-25 10:31:00,
2013-08-25 05:36:00,63.9,59.6,30.21,East,93,0.0,0.0,86,0.00,,CLR,0.00,VWS V14.01,2013-08-25 10:36:00,
2013-08-25 05:41:00,63.9,59.6,30.21,East,93,0.0,0.0,86,0.00,,CLR,0.00,VWS V14.01,2013-08-25 10:41:00,
2013-08-25 05:46:00,63.8,59.5,30.21,East,93,0.0,0.0,86,0.00,,CLR,0.00,VWS V14.01,2013-08-25 10:46:00,
2013-08-25 05:51:00,63.8,59.5,30.21,East,93,0.0,1.0,86,0.00,,CLR,0.00,VWS V14.01,2013-08-25 10:51:00,
2013-08-25 05:56:00,63.9,59.6,30.22,East,93,0.0,0.0,86,0.00,,CLR,0.00,VWS V14.01,2013-08-25 10:56:00,
2013-08-25 06:01:00,63.9,59.6,30.22,East,93,0.0,0.0,86,0.00,,CLR,0.00,VWS V14.01,2013-08-25 11:01:00,
2013-08-25 06:06:00,63.9,59.6,30.22,East,93,0.0,0.0,86,0.00,,CLR,0.00,VWS V14.01,2013-08-25 11:06:00,
2013-08-25 06:11:00,63.8,59.5,30.22,East,93,0.0,0.0,86,0.00,,CLR,0.00,VWS V14.01,2013-08-25 11:11:00,
2013-08-25 06:16:00,63.8,59.5,30.22,East,93,0.0,0.0,86,0.00,,CLR,0.00,VWS V14.01,2013-08-25 11:16:00,
2013-08-25 06:21:00,63.8,59.5,30.23,East,93,0.0,0.0,86,0.00,,CLR,0.00,VWS V14.01,2013-08-25 11:21:00,
2013-08-25 06:26:00,63.8,59.5,30.23,East,93,0.0,0.0,86,0.00,,CLR,0.00,VWS V14.01,2013-08-25 11:26:00,
2013-08-25 06:31:00,63.8,59.5,30.23,East,93,0.0,0.0,86,0.00,,CLR,0.00,VWS V14.01,2013-08-25 11:31:00,
2013-08-25 06:36:00,63.9,59.6,30.23,East,93,0.0,0.0,86,0.00,,CLR,0.00,VWS V14.01,2013-08-25 11:36:00,
2013-08-25 06:41:00,64.0,59.7,30.23,East,93,0.0,0.0,86,0.00,,CLR,0.00,VWS V14.01,2013-08-25 11:41:00,
2013-08-25 06:46:00,64.1,59.8,30.24,East,93,0.0,0.0,86,0.00,,CLR,0.00,VWS V14.01,2013-08-25 11:46:00,
2013-08-25 06:51:00,64.2,59.9,30.24,East,93,0.0,0.0,86,0.00,,CLR,0.00,VWS V14.01,2013-08-25 11:51:00,
2013-08-25 06:56:00,64.4,60.1,30.24,East,93,0.0,0.0,86,0.00,,CLR,0.00,VWS V14.01,2013-08-25 11:56:00,
2013-08-25 07:01:00,64.5,60.2,30.24,East,93,0.0,0.0,86,0.00,,CLR,0.00,VWS V14.01,2013-08-25 12:01:00,
2013-08-25 07:06:00,64.7,60.4,30.24,East,93,0.0,0.0,86,0.00,,CLR,0.00,VWS V14.01,2013-08-25 12:06:00,
2013-08-25 07:11:00,64.9,60.6,30.24,East,93,0.0,0.0,86,0.00,,CLR,0.00,VWS V14.01,2013-08-25 12:11:00,
2013-08-25 07:16:00,65.2,60.9,30.24,East,93,0.0,0.0,86,0.00,,CLR,0.00,VWS V14.01,2013-08-25 12:16:00,
2013-08-25 07:21:00,65.5,61.2,30.24,East,93,0.0,0.0,86,0.00,,CLR,0.00,VWS V14.01,2013-08-25 12:21:00,
2013-08-25 07:26:00,66.0,61.7,30.24,East,93,0.0,0.0,86,0.00,,CLR,0.00,VWS V14.01,2013-08-25 12:26:00,
2013-08-25 07:31:00,66.6,62.3,30.24,East,93,0.0,1.0,86,0.00,,CLR,0.00,VWS V14.01,2013-08-25 12:31:00,
2013-08-25 07:36:00,67.6,62.9,30.24,East,93,0.0,1.0,85,0.00,,CLR,0.00,VWS V14.01,2013-08-25 12:36:00,
2013-08-25 07:41:00,68.7,63.7,30.24,East,93,1.0,1.0,84,0.00,,CLR,0.00,VWS V14.01,2013-08-25 12:41:00,
2013-08-25 07:46:00,69.8,64.1,30.24,East,93,0.0,1.0,82,0.00,,CLR,0.00,VWS V14.01,2013-08-25 12:46:00,
2013-08-25 07:51:00,70.9,64.8,30.24,East,93,0.0,1.0,81,0.00,,CLR,0.00,VWS V14.01,2013-08-25 12:51:00,
2013-08-25 07:56:00,71.9,65.0,30.24,East,93,0.0,0.0,79,0.00,,CLR,0.00,VWS V14.01,2013-08-25 12:56:00,
2013-08-25 08:01:00,72.8,65.6,30.24,East,93,0.0,1.0,78,0.00,,CLR,0.00,VWS V14.01,2013-08-25 13:01:00,
2013-08-25 08:06:00,73.5,65.9,30.24,East,93,0.0,1.0,77,0.00,,CLR,0.00,VWS V14.01,2013-08-25 13:06:00,
2013-08-25 08:11:00,74.2,65.8,30.24,East,93,0.0,1.0,75,0.00,,CLR,0.00,VWS V14.01,2013-08-25 13:11:00,
2013-08-25 08:16:00,74.8,66.0,30.24,East,93,0.0,1.0,74,0.00,,CLR,0.00,VWS V14.01,2013-08-25 13:16:00,
2013-08-25 08:21:00,75.4,66.5,30.23,East,93,0.0,1.0,74,0.00,,CLR,0.00,VWS V14.01,2013-08-25 13:21:00,
2013-08-25 08:26:00,76.0,66.7,30.24,East,93,0.0,1.0,73,0.00,,CLR,0.00,VWS V14.01,2013-08-25 13:26:00,
2013-08-25 08:31:00,76.7,67.0,30.24,East,93,0.0,1.0,72,0.00,,CLR,0.00,VWS V14.01,2013-08-25 13:31:00,
2013-08-25 08:36:00,77.0,66.9,30.24,East,93,0.0,2.0,71,0.00,,CLR,0.00,VWS V14.01,2013-08-25 13:36:00,
2013-08-25 08:41:00,77.4,66.9,30.24,SE,130,0.0,4.0,70,0.00,,CLR,0.00,VWS V14.01,2013-08-25 13:41:00,
2013-08-25 08:46:00,77.5,66.5,30.24,SE,130,0.0,2.0,69,0.00,,CLR,0.00,VWS V14.01,2013-08-25 13:46:00,
2013-08-25 08:51:00,77.8,66.8,30.23,SSE,151,0.0,4.0,69,0.00,,CLR,0.00,VWS V14.01,2013-08-25 13:51:00,
2013-08-25 08:56:00,78.2,66.8,30.24,SSE,158,1.0,5.0,68,0.00,,CLR,0.00,VWS V14.01,2013-08-25 13:56:00,
2013-08-25 09:01:00,78.7,66.4,30.23,ESE,122,0.0,0.0,66,0.00,,CLR,0.00,VWS V14.01,2013-08-25 14:01:00,
2013-08-25 09:06:00,79.2,66.9,30.24,SE,125,0.0,1.0,66,0.00,,CLR,0.00,VWS V14.01,2013-08-25 14:06:00,
2013-08-25 09:11:00,79.5,66.7,30.24,SSE,156,0.0,0.0,65,0.00,,CLR,0.00,VWS V14.01,2013-08-25 14:11:00,
2013-08-25 09:17:00,80.0,66.7,30.24,SE,141,0.0,2.0,64,0.00,,CLR,0.00,VWS V14.01,2013-08-25 14:17:00,
2013-08-25 09:22:00,80.2,66.5,30.24,SE,142,0.0,0.0,63,0.00,,CLR,0.00,VWS V14.01,2013-08-25 14:22:00,
2013-08-25 09:27:00,80.4,66.2,30.24,SE,142,0.0,1.0,62,0.00,,CLR,0.00,VWS V14.01,2013-08-25 14:27:00,
2013-08-25 09:32:00,80.6,65.9,30.24,SSW,213,2.0,2.0,61,0.00,,CLR,0.00,VWS V14.01,2013-08-25 14:32:00,
2013-08-25 09:37:00,81.0,66.8,30.23,SSW,195,0.0,3.0,62,0.00,,CLR,0.00,VWS V14.01,2013-08-25 14:37:00,
2013-08-25 09:42:00,81.3,66.6,30.24,SSW,194,1.0,1.0,61,0.00,,CLR,0.00,VWS V14.01,2013-08-25 14:42:00,
2013-08-25 09:47:00,82.0,66.8,30.24,SE,138,1.0,4.0,60,0.00,,CLR,0.00,VWS V14.01,2013-08-25 14:47:00,
2013-08-25 09:52:00,82.5,66.2,30.23,SSW,197,0.0,0.0,58,0.00,,CLR,0.00,VWS V14.01,2013-08-25 14:52:00,
2013-08-25 09:57:00,82.9,67.1,30.24,SE,137,0.0,5.0,59,0.00,,CLR,0.00,VWS V14.01,2013-08-25 14:57:00,
2013-08-25 10:02:00,83.2,67.4,30.24,ESE,106,0.0,0.0,59,0.00,,CLR,0.00,VWS V14.01,2013-08-25 15:02:00,
2013-08-25 10:07:00,83.5,66.7,30.24,SE,146,0.0,5.0,57,0.00,,CLR,0.00,VWS V14.01,2013-08-25 15:07:00,
2013-08-25 10:12:00,83.6,66.3,30.24,SE,128,0.0,1.0,56,0.00,,CLR,0.00,VWS V14.01,2013-08-25 15:12:00,
2013-08-25 10:17:00,84.0,66.1,30.24,SE,140,0.0,2.0,55,0.00,,CLR,0.00,VWS V14.01,2013-08-25 15:17:00,
2013-08-25 10:22:00,84.3,66.9,30.24,SE,143,0.0,0.0,56,0.00,,CLR,0.00,VWS V14.01,2013-08-25 15:22:00,
2013-08-25 10:27:00,84.5,66.6,30.23,ESE,115,1.0,5.0,55,0.00,,CLR,0.00,VWS V14.01,2013-08-25 15:27:00,
2013-08-25 10:32:00,84.7,66.8,30.24,SSE,156,2.0,2.0,55,0.00,,CLR,0.00,VWS V14.01,2013-08-25 15:32:00,
2013-08-25 10:37:00,84.9,67.5,30.23,SSE,157,0.0,4.0,56,0.00,,CLR,0.00,VWS V14.01,2013-08-25 15:37:00,
2013-08-25 10:42:00,85.0,67.0,30.24,SE,136,2.0,2.0,55,0.00,,CLR,0.00,VWS V14.01,2013-08-25 15:42:00,
2013-08-25 10:47:00,85.1,67.1,30.24,SSE,168,0.0,7.0,55,0.00,,CLR,0.00,VWS V14.01,2013-08-25 15:47:00,
2013-08-25 10:52:00,85.5,67.5,30.24,SSE,159,1.0,1.0,55,0.00,,CLR,0.00,VWS V14.01,2013-08-25 15:52:00,
2013-08-25 10:57:00,85.5,66.4,30.24,ESE,116,1.0,5.0,53,0.00,,CLR,0.00,VWS V14.01,2013-08-25 15:57:00,
2013-08-25 11:02:00,85.6,66.5,30.24,South,184,0.0,1.0,53,0.00,,CLR,0.00,VWS V14.01,2013-08-25 16:02:00,
2013-08-25 11:07:00,85.4,66.3,30.24,ESE,119,0.0,5.0,53,0.00,,CLR,0.00,VWS V14.01,2013-08-25 16:07:00,
2013-08-25 11:12:00,85.5,66.4,30.24,South,182,1.0,2.0,53,0.00,,CLR,0.00,VWS V14.01,2013-08-25 16:12:00,
2013-08-25 11:17:00,85.9,66.8,30.23,SSW,202,1.0,4.0,53,0.00,,CLR,0.00,VWS V14.01,2013-08-25 16:17:00,
2013-08-25 11:22:00,86.7,67.5,30.23,SSW,202,1.0,1.0,53,0.00,,CLR,0.00,VWS V14.01,2013-08-25 16:22:00,
2013-08-25 11:27:00,87.2,65.1,30.22,ESE,122,0.0,6.0,48,0.00,,CLR,0.00,VWS V14.01,2013-08-25 16:27:00,
2013-08-25 11:32:00,87.0,65.6,30.22,South,176,1.0,1.0,49,0.00,,CLR,0.00,VWS V14.01,2013-08-25 16:32:00,
2013-08-25 11:37:00,87.3,64.6,30.22,East,81,0.0,8.0,47,0.00,,CLR,0.00,VWS V14.01,2013-08-25 16:37:00,
2013-08-25 11:42:00,86.8,64.8,30.22,SE,129,0.0,6.0,48,0.00,,CLR,0.00,VWS V14.01,2013-08-25 16:42:00,
2013-08-25 11:47:00,87.0,66.1,30.22,SSE,161,0.0,6.0,50,0.00,,CLR,0.00,VWS V14.01,2013-08-25 16:47:00,
2013-08-25 11:52:00,87.5,66.0,30.21,SE,130,2.0,4.0,49,0.00,,CLR,0.00,VWS V14.01,2013-08-25 16:52:00,
2013-08-25 11:57:00,88.1,67.7,30.21,East,98,4.0,6.0,51,0.00,,CLR,0.00,VWS V14.01,2013-08-25 16:57:00,
2013-08-25 12:02:00,88.0,66.5,30.21,SSE,159,4.0,4.0,49,0.00,,CLR,0.00,VWS V14.01,2013-08-25 17:02:00,
2013-08-25 12:07:00,87.6,66.7,30.22,SSW,202,2.0,7.0,50,0.00,,CLR,0.00,VWS V14.01,2013-08-25 17:07:00,
2013-08-25 12:12:00,87.3,65.8,30.21,SSW,197,0.0,1.0,49,0.00,,CLR,0.00,VWS V14.01,2013-08-25 17:12:00,
2013-08-25 12:17:00,87.6,66.1,30.21,SSE,163,4.0,4.0,49,0.00,,CLR,0.00,VWS V14.01,2013-08-25 17:17:00,
2013-08-25 12:22:00,87.8,66.3,30.21,SSW,203,1.0,1.0,49,0.00,,CLR,0.00,VWS V14.01,2013-08-25 17:22:00,
2013-08-25 12:27:00,88.4,66.2,30.21,SSE,158,4.0,5.0,48,0.00,,CLR,0.00,VWS V14.01,2013-08-25 17:27:00,
2013-08-25 12:32:00,88.3,66.1,30.20,SSW,209,2.0,3.0,48,0.00,,CLR,0.00,VWS V14.01,2013-08-25 17:32:00,
2013-08-25 12:37:00,88.2,65.4,30.20,SSE,148,0.0,7.0,47,0.00,,CLR,0.00,VWS V14.01,2013-08-25 17:37:00,
2013-08-25 12:42:00,88.6,66.4,30.20,SSE,159,0.0,1.0,48,0.00,,CLR,0.00,VWS V14.01,2013-08-25 17:42:00,
2013-08-25 12:47:00,88.8,65.4,30.20,South,178,0.0,6.0,46,0.00,,CLR,0.00,VWS V14.01,2013-08-25 17:47:00,
2013-08-25 12:52:00,88.6,65.2,30.20,SSW,198,0.0,1.0,46,0.00,,CLR,0.00,VWS V14.01,2013-08-25 17:52:00,
2013-08-25 12:57:00,88.1,64.1,30.20,SSW,198,0.0,1.0,45,0.00,,CLR,0.00,VWS V14.01,2013-08-25 17:57:00,
2013-08-25 13:02:00,88.3,66.7,30.20,SSW,198,0.0,2.0,49,0.00,,CLR,0.00,VWS V14.01,2013-08-25 18:02:00,
2013-08-25 13:07:00,89.2,65.1,30.20,SE,137,0.0,6.0,45,0.00,,CLR,0.00,VWS V14.01,2013-08-25 18:07:00,
2013-08-25 13:12:00,89.0,64.9,30.20,East,88,0.0,1.0,45,0.00,,CLR,0.00,VWS V14.01,2013-08-25 18:12:00,
2013-08-25 13:17:00,88.6,64.6,30.19,South,188,0.0,6.0,45,0.00,,CLR,0.00,VWS V14.01,2013-08-25 18:17:00,
2013-08-25 13:22:00,88.8,66.0,30.19,WSW,240,0.0,3.0,47,0.00,,CLR,0.00,VWS V14.01,2013-08-25 18:22:00,
2013-08-25 13:27:00,89.7,66.2,30.19,ENE,77,0.0,8.0,46,0.00,,CLR,0.00,VWS V14.01,2013-08-25 18:27:00,
2013-08-25 13:32:00,89.8,65.6,30.19,East,101,1.0,1.0,45,0.00,,CLR,0.00,VWS V14.01,2013-08-25 18:32:00,
2013-08-25 13:37:00,89.6,64.2,30.19,ESE,112,0.0,7.0,43,0.00,,CLR,0.00,VWS V14.01,2013-08-25 18:37:00,
2013-08-25 13:42:00,89.4,65.9,30.19,SW,225,0.0,2.0,46,0.00,,CLR,0.00,VWS V14.01,2013-08-25 18:42:00,
2013-08-25 13:47:00,89.5,64.7,30.19,South,186,1.0,3.0,44,0.00,,CLR,0.00,VWS V14.01,2013-08-25 18:47:00,
2013-08-25 13:52:00,89.2,63.8,30.18,North,349,0.0,8.0,43,0.00,,CLR,0.00,VWS V14.01,2013-08-25 18:52:00,
2013-08-25 13:57:00,89.9,65.1,30.19,SSE,165,2.0,8.0,44,0.00,,CLR,0.00,VWS V14.01,2013-08-25 18:57:00,
2013-08-25 14:02:00,90.0,63.2,30.18,SSE,156,1.0,1.0,41,0.00,,CLR,0.00,VWS V14.01,2013-08-25 19:02:00,
2013-08-25 14:07:00,89.4,62.6,30.18,South,182,3.0,7.0,41,0.00,,CLR,0.00,VWS V14.01,2013-08-25 19:07:00,
2013-08-25 14:12:00,89.4,62.6,30.18,SSE,162,2.0,4.0,41,0.00,,CLR,0.00,VWS V14.01,2013-08-25 19:12:00,
2013-08-25 14:17:00,89.2,62.4,30.18,East,92,2.0,6.0,41,0.00,,CLR,0.00,VWS V14.01,2013-08-25 19:17:00,
2013-08-25 14:22:00,89.0,61.6,30.18,South,169,0.0,0.0,40,0.00,,CLR,0.00,VWS V14.01,2013-08-25 19:22:00,
2013-08-25 14:27:00,89.6,61.4,30.18,SSE,147,0.0,2.0,39,0.00,,CLR,0.00,VWS V14.01,2013-08-25 19:27:00,
2013-08-25 14:32:00,90.1,64.6,30.17,WSW,250,6.0,7.0,43,0.00,,CLR,0.00,VWS V14.01,2013-08-25 19:32:00,
2013-08-25 14:37:00,90.0,63.2,30.17,SSE,148,2.0,7.0,41,0.00,,CLR,0.00,VWS V14.01,2013-08-25 19:37:00,
2013-08-25 14:42:00,90.2,64.0,30.18,SSE,159,1.0,2.0,42,0.00,,CLR,0.00,VWS V14.01,2013-08-25 19:42:00,
2013-08-25 14:47:00,89.6,62.8,30.18,SW,223,0.0,4.0,41,0.00,,CLR,0.00,VWS V14.01,2013-08-25 19:47:00,
2013-08-25 14:52:00,89.6,63.5,30.17,SSE,147,0.0,0.0,42,0.00,,CLR,0.00,VWS V14.01,2013-08-25 19:52:00,
2013-08-25 14:57:00,90.1,64.6,30.17,WSW,240,0.0,5.0,43,0.00,,CLR,0.00,VWS V14.01,2013-08-25 19:57:00,
2013-08-25 15:02:00,90.8,64.6,30.17,SSW,192,0.0,3.0,42,0.00,,CLR,0.00,VWS V14.01,2013-08-25 20:02:00,
2013-08-25 15:07:00,90.4,62.8,30.17,South,177,0.0,4.0,40,0.00,,CLR,0.00,VWS V14.01,2013-08-25 20:07:00,
2013-08-25 15:12:00,89.9,63.1,30.17,South,179,0.0,1.0,41,0.00,,CLR,0.00,VWS V14.01,2013-08-25 20:12:00,
2013-08-25 15:17:00,89.8,63.7,30.17,South,169,0.0,6.0,42,0.00,,CLR,0.00,VWS V14.01,2013-08-25 20:17:00,
2013-08-25 15:22:00,90.1,65.3,30.17,SW,221,0.0,1.0,44,0.00,,CLR,0.00,VWS V14.01,2013-08-25 20:22:00,
2013-08-25 15:27:00,90.0,64.5,30.17,South,189,2.0,5.0,43,0.00,,CLR,0.00,VWS V14.01,2013-08-25 20:27:00,
2013-08-25 15:32:00,90.0,65.8,30.17,SSW,204,0.0,0.0,45,0.00,,CLR,0.00,VWS V14.01,2013-08-25 20:32:00,
2013-08-25 15:37:00,90.3,64.8,30.16,SSW,204,0.0,2.0,43,0.00,,CLR,0.00,VWS V14.01,2013-08-25 20:37:00,
2013-08-25 15:42:00,90.4,65.5,30.16,SSW,198,0.0,1.0,44,0.00,,CLR,0.00,VWS V14.01,2013-08-25 20:42:00,
2013-08-25 15:47:00,89.7,64.9,30.16,SSW,207,1.0,3.0,44,0.00,,CLR,0.00,VWS V14.01,2013-08-25 20:47:00,
2013-08-25 15:52:00,90.2,66.0,30.16,SSW,207,1.0,1.0,45,0.00,,CLR,0.00,VWS V14.01,2013-08-25 20:52:00,
2013-08-25 15:57:00,90.4,66.2,30.16,South,188,0.0,4.0,45,0.00,,CLR,0.00,VWS V14.01,2013-08-25 20:57:00,
2013-08-25 16:02:00,90.4,66.2,30.16,SW,235,0.0,1.0,45,0.00,,CLR,0.00,VWS V14.01,2013-08-25 21:02:00,
2013-08-25 16:07:00,90.5,65.6,30.16,SSE,153,0.0,2.0,44,0.00,,CLR,0.00,VWS V14.01,2013-08-25 21:07:00,
2013-08-25 16:12:00,89.8,65.6,30.16,SE,146,1.0,2.0,45,0.00,,CLR,0.00,VWS V14.01,2013-08-25 21:12:00,
2013-08-25 16:17:00,89.8,65.0,30.16,SSE,150,0.0,4.0,44,0.00,,CLR,0.00,VWS V14.01,2013-08-25 21:17:00,
2013-08-25 16:22:00,89.4,65.9,30.15,SE,138,0.0,1.0,46,0.00,,CLR,0.00,VWS V14.01,2013-08-25 21:22:00,
2013-08-25 16:27:00,89.7,65.6,30.16,South,189,0.0,5.0,45,0.00,,CLR,0.00,VWS V14.01,2013-08-25 21:27:00,
2013-08-25 16:32:00,90.1,65.9,30.16,South,182,0.0,2.0,45,0.00,,CLR,0.00,VWS V14.01,2013-08-25 21:32:00,
2013-08-25 16:37:00,89.7,65.6,30.16,South,190,3.0,5.0,45,0.00,,CLR,0.00,VWS V14.01,2013-08-25 21:37:00,
2013-08-25 16:42:00,89.9,65.7,30.16,South,190,1.0,3.0,45,0.00,,CLR,0.00,VWS V14.01,2013-08-25 21:42:00,
2013-08-25 16:47:00,90.2,67.3,30.16,South,190,0.0,3.0,47,0.00,,CLR,0.00,VWS V14.01,2013-08-25 21:47:00,
2013-08-25 16:52:00,90.4,66.8,30.15,South,173,4.0,5.0,46,0.00,,CLR,0.00,VWS V14.01,2013-08-25 21:52:00,
2013-08-25 16:57:00,90.4,66.8,30.15,South,187,0.0,5.0,46,0.00,,CLR,0.00,VWS V14.01,2013-08-25 21:57:00,
2013-08-25 17:02:00,89.5,66.0,30.15,South,178,0.0,1.0,46,0.00,,CLR,0.00,VWS V14.01,2013-08-25 22:02:00,
2013-08-25 17:07:00,89.7,66.8,30.15,South,178,1.0,2.0,47,0.00,,CLR,0.00,VWS V14.01,2013-08-25 22:07:00,
2013-08-25 17:12:00,89.6,66.1,30.15,South,178,0.0,0.0,46,0.00,,CLR,0.00,VWS V14.01,2013-08-25 22:12:00,
2013-08-25 17:17:00,89.5,66.0,30.15,South,181,0.0,6.0,46,0.00,,CLR,0.00,VWS V14.01,2013-08-25 22:17:00,
2013-08-25 17:22:00,89.4,65.9,30.15,South,181,0.0,0.0,46,0.00,,CLR,0.00,VWS V14.01,2013-08-25 22:22:00,
2013-08-25 17:27:00,89.3,66.4,30.15,South,181,0.0,1.0,47,0.00,,CLR,0.00,VWS V14.01,2013-08-25 22:27:00,
2013-08-25 17:32:00,89.2,66.3,30.15,South,181,1.0,1.0,47,0.00,,CLR,0.00,VWS V14.01,2013-08-25 22:32:00,
2013-08-25 17:37:00,89.1,66.3,30.15,South,177,0.0,4.0,47,0.00,,CLR,0.00,VWS V14.01,2013-08-25 22:37:00,
2013-08-25 17:42:00,89.0,66.2,30.15,SE,131,0.0,0.0,47,0.00,,CLR,0.00,VWS V14.01,2013-08-25 22:42:00,
2013-08-25 17:47:00,88.8,66.6,30.15,SE,130,0.0,1.0,48,0.00,,CLR,0.00,VWS V14.01,2013-08-25 22:47:00,
2013-08-25 17:52:00,88.6,66.4,30.15,SE,128,0.0,0.0,48,0.00,,CLR,0.00,VWS V14.01,2013-08-25 22:52:00,
2013-08-25 17:57:00,88.5,66.3,30.15,ESE,118,0.0,2.0,48,0.00,,CLR,0.00,VWS V14.01,2013-08-25 22:57:00,
2013-08-25 18:02:00,88.4,66.8,30.15,ESE,118,0.0,0.0,49,0.00,,CLR,0.00,VWS V14.01,2013-08-25 23:02:00,
2013-08-25 18:07:00,88.4,67.4,30.15,ESE,118,0.0,1.0,50,0.00,,CLR,0.00,VWS V14.01,2013-08-25 23:07:00,
2013-08-25 18:12:00,88.3,67.9,30.15,ESE,118,0.0,1.0,51,0.00,,CLR,0.00,VWS V14.01,2013-08-25 23:12:00,
2013-08-25 18:17:00,88.2,68.4,30.15,ESE,118,0.0,1.0,52,0.00,,CLR,0.00,VWS V14.01,2013-08-25 23:17:00,
2013-08-25 18:22:00,87.9,68.7,30.14,ESE,119,0.0,0.0,53,0.00,,CLR,0.00,VWS V14.01,2013-08-25 23:22:00,
2013-08-25 18:27:00,87.7,69.0,30.14,ESE,119,0.0,1.0,54,0.00,,CLR,0.00,VWS V14.01,2013-08-25 23:27:00,
2013-08-25 18:32:00,87.5,68.8,30.15,ESE,119,0.0,0.0,54,0.00,,CLR,0.00,VWS V14.01,2013-08-25 23:32:00,
2013-08-25 18:37:00,87.3,69.2,30.15,ESE,119,0.0,0.0,55,0.00,,CLR,0.00,VWS V14.01,2013-08-25 23:37:00,
2013-08-25 18:42:00,87.2,69.1,30.14,ESE,119,0.0,0.0,55,0.00,,CLR,0.00,VWS V14.01,2013-08-25 23:42:00,
2013-08-25 18:47:00,87.1,68.4,30.14,ESE,119,0.0,0.0,54,0.00,,CLR,0.00,VWS V14.01,2013-08-25 23:47:00,
2013-08-25 18:53:00,86.9,69.3,30.15,ESE,119,0.0,0.0,56,0.00,,CLR,0.00,VWS V14.01,2013-08-25 23:53:00,
2013-08-25 18:58:00,86.7,69.7,30.15,ESE,119,0.0,0.0,57,0.00,,CLR,0.00,VWS V14.01,2013-08-25 23:58:00,
2013-08-25 19:03:00,86.4,69.9,30.15,ESE,119,0.0,0.0,58,0.00,,CLR,0.00,VWS V14.01,2013-08-26 00:03:00,
2013-08-25 19:08:00,86.0,69.5,30.15,ESE,119,0.0,0.0,58,0.00,,CLR,0.00,VWS V14.01,2013-08-26 00:08:00,
2013-08-25 19:13:00,85.6,69.6,30.15,ESE,119,0.0,0.0,59,0.00,,CLR,0.00,VWS V14.01,2013-08-26 00:13:00,
2013-08-25 19:18:00,85.2,69.8,30.15,ESE,119,0.0,0.0,60,0.00,,CLR,0.00,VWS V14.01,2013-08-26 00:18:00,
2013-08-25 19:23:00,84.7,69.8,30.15,ESE,119,0.0,0.0,61,0.00,,CLR,0.00,VWS V14.01,2013-08-26 00:23:00,
2013-08-25 19:28:00,84.3,69.4,30.15,ESE,119,0.0,0.0,61,0.00,,CLR,0.00,VWS V14.01,2013-08-26 00:28:00,
2013-08-25 19:33:00,83.9,69.5,30.15,ESE,119,0.0,0.0,62,0.00,,CLR,0.00,VWS V14.01,2013-08-26 00:33:00,
2013-08-25 19:38:00,83.5,69.6,30.15,ESE,119,0.0,0.0,63,0.00,,CLR,0.00,VWS V14.01,2013-08-26 00:38:00,
2013-08-25 19:43:00,83.1,69.7,30.16,ESE,119,0.0,0.0,64,0.00,,CLR,0.00,VWS V14.01,2013-08-26 00:43:00,
2013-08-25 19:48:00,82.7,69.3,30.15,ESE,119,0.0,0.0,64,0.00,,CLR,0.00,VWS V14.01,2013-08-26 00:48:00,
2013-08-25 19:53:00,82.4,69.5,30.16,ESE,119,0.0,0.0,65,0.00,,CLR,0.00,VWS V14.01,2013-08-26 00:53:00,
2013-08-25 19:58:00,82.1,69.2,30.15,ESE,119,0.0,0.0,65,0.00,,CLR,0.00,VWS V14.01,2013-08-26 00:58:00,
2013-08-25 20:03:00,81.7,69.2,30.15,ESE,119,0.0,0.0,66,0.00,,CLR,0.00,VWS V14.01,2013-08-26 01:03:00,
2013-08-25 20:08:00,81.4,69.4,30.15,ESE,119,0.0,0.0,67,0.00,,CLR,0.00,VWS V14.01,2013-08-26 01:08:00,
2013-08-25 20:13:00,81.0,69.4,30.15,ESE,119,0.0,0.0,68,0.00,,CLR,0.00,VWS V14.01,2013-08-26 01:13:00,
2013-08-25 20:18:00,80.7,69.6,30.16,ESE,119,0.0,0.0,69,0.00,,CLR,0.00,VWS V14.01,2013-08-26 01:18:00,
2013-08-25 20:23:00,80.4,69.3,30.16,ESE,119,0.0,0.0,69,0.00,,CLR,0.00,VWS V14.01,2013-08-26 01:23:00,
2013-08-25 20:28:00,80.1,69.4,30.16,ESE,119,0.0,0.0,70,0.00,,CLR,0.00,VWS V14.01,2013-08-26 01:28:00,
2013-08-25 20:33:00,79.8,69.6,30.16,ESE,119,0.0,0.0,71,0.00,,CLR,0.00,VWS V14.01,2013-08-26 01:33:00,
2013-08-25 20:38:00,79.5,69.7,30.16,ESE,119,0.0,0.0,72,0.00,,CLR,0.00,VWS V14.01,2013-08-26 01:38:00,
2013-08-25 20:43:00,79.3,69.9,30.16,ESE,119,0.0,0.0,73,0.00,,CLR,0.00,VWS V14.01,2013-08-26 01:43:00,
2013-08-25 20:48:00,79.1,69.7,30.16,ESE,119,0.0,0.0,73,0.00,,CLR,0.00,VWS V14.01,2013-08-26 01:48:00,
2013-08-25 20:53:00,78.8,69.8,30.16,ESE,119,0.0,0.0,74,0.00,,CLR,0.00,VWS V14.01,2013-08-26 01:53:00,
2013-08-25 20:58:00,78.6,70.0,30.16,ESE,119,0.0,0.0,75,0.00,,CLR,0.00,VWS V14.01,2013-08-26 01:58:00,
2013-08-25 21:03:00,78.3,70.1,30.16,ESE,119,0.0,0.0,76,0.00,,CLR,0.00,VWS V14.01,2013-08-26 02:03:00,
2013-08-25 21:08:00,78.1,69.9,30.16,ESE,119,0.0,0.0,76,0.00,,CLR,0.00,VWS V14.01,2013-08-26 02:08:00,
2013-08-25 21:13:00,77.9,70.1,30.17,ESE,119,0.0,0.0,77,0.00,,CLR,0.00,VWS V14.01,2013-08-26 02:13:00,
2013-08-25 21:18:00,77.6,69.8,30.17,ESE,119,0.0,0.0,77,0.00,,CLR,0.00,VWS V14.01,2013-08-26 02:18:00,
2013-08-25 21:23:00,77.4,70.0,30.17,ESE,119,0.0,0.0,78,0.00,,CLR,0.00,VWS V14.01,2013-08-26 02:23:00,
2013-08-25 21:28:00,77.2,69.8,30.17,ESE,119,0.0,0.0,78,0.00,,CLR,0.00,VWS V14.01,2013-08-26 02:28:00,
2013-08-25 21:33:00,77.1,69.7,30.17,ESE,119,0.0,0.0,78,0.00,,CLR,0.00,VWS V14.01,2013-08-26 02:33:00,
2013-08-25 21:38:00,76.9,69.5,30.18,ESE,119,0.0,0.0,78,0.00,,CLR,0.00,VWS V14.01,2013-08-26 02:38:00,
2013-08-25 21:43:00,76.7,69.7,30.17,ESE,119,0.0,0.0,79,0.00,,CLR,0.00,VWS V14.01,2013-08-26 02:43:00,
2013-08-25 21:48:00,76.5,69.5,30.17,ESE,119,0.0,0.0,79,0.00,,CLR,0.00,VWS V14.01,2013-08-26 02:48:00,
2013-08-25 21:53:00,76.3,69.3,30.17,ESE,119,0.0,0.0,79,0.00,,CLR,0.00,VWS V14.01,2013-08-26 02:53:00,
2013-08-25 21:58:00,76.1,69.1,30.17,ESE,119,0.0,0.0,79,0.00,,CLR,0.00,VWS V14.01,2013-08-26 02:58:00,
2013-08-25 22:03:00,76.0,69.0,30.17,ESE,119,0.0,0.0,79,0.00,,CLR,0.00,VWS V14.01,2013-08-26 03:03:00,
2013-08-25 22:08:00,75.8,69.2,30.18,ESE,119,0.0,0.0,80,0.00,,CLR,0.00,VWS V14.01,2013-08-26 03:08:00,
2013-08-25 22:13:00,75.6,69.0,30.18,ESE,119,0.0,0.0,80,0.00,,CLR,0.00,VWS V14.01,2013-08-26 03:13:00,
2013-08-25 22:18:00,75.6,69.0,30.18,ESE,119,0.0,0.0,80,0.00,,CLR,0.00,VWS V14.01,2013-08-26 03:18:00,
2013-08-25 22:23:00,75.4,69.2,30.18,ESE,119,0.0,1.0,81,0.00,,CLR,0.00,VWS V14.01,2013-08-26 03:23:00,
2013-08-25 22:28:00,75.4,69.2,30.18,ESE,119,0.0,1.0,81,0.00,,CLR,0.00,VWS V14.01,2013-08-26 03:28:00,
2013-08-25 22:33:00,75.3,69.1,30.18,ESE,119,0.0,0.0,81,0.00,,CLR,0.00,VWS V14.01,2013-08-26 03:33:00,
2013-08-25 22:38:00,75.2,69.0,30.18,ESE,119,0.0,0.0,81,0.00,,CLR,0.00,VWS V14.01,2013-08-26 03:38:00,
2013-08-25 22:43:00,75.2,69.0,30.18,ESE,119,0.0,0.0,81,0.00,,CLR,0.00,VWS V14.01,2013-08-26 03:43:00,
2013-08-25 22:48:00,75.2,69.0,30.18,ESE,119,0.0,0.0,81,0.00,,CLR,0.00,VWS V14.01,2013-08-26 03:48:00,
2013-08-25 22:53:00,75.2,69.0,30.18,ESE,119,0.0,0.0,81,0.00,,CLR,0.00,VWS V14.01,2013-08-26 03:53:00,
2013-08-25 22:58:00,75.2,69.3,30.18,ESE,119,0.0,0.0,82,0.00,,CLR,0.00,VWS V14.01,2013-08-26 03:58:00,
2013-08-25 23:01:00,75.2,69.3,30.17,ESE,119,0.0,0.0,82,0.00,,CLR,0.00,VWS V14.01,2013-08-26 04:01:00,
2013-08-25 23:08:00,75.2,69.3,30.18,ESE,119,0.0,0.0,82,0.00,,CLR,0.00,VWS V14.01,2013-08-26 04:08:00,
2013-08-25 23:13:00,75.1,69.2,30.18,ESE,119,0.0,0.0,82,0.00,,CLR,0.00,VWS V14.01,2013-08-26 04:13:00,
2013-08-25 23:18:00,75.0,69.1,30.18,ESE,119,0.0,0.0,82,0.00,,CLR,0.00,VWS V14.01,2013-08-26 04:18:00,
2013-08-25 23:21:00,74.9,69.0,30.18,ESE,119,0.0,0.0,82,0.00,,CLR,0.00,VWS V14.01,2013-08-26 04:21:00,
2013-08-25 23:28:00,74.9,69.4,30.18,ESE,119,0.0,0.0,83,0.00,,CLR,0.00,VWS V14.01,2013-08-26 04:28:00,
2013-08-25 23:33:00,74.9,69.4,30.18,ESE,119,0.0,0.0,83,0.00,,CLR,0.00,VWS V14.01,2013-08-26 04:33:00,
2013-08-25 23:38:00,74.8,69.3,30.17,ESE,119,0.0,0.0,83,0.00,,CLR,0.00,VWS V14.01,2013-08-26 04:38:00,
2013-08-25 23:43:00,74.8,69.7,30.18,ESE,119,0.0,0.0,84,0.00,,CLR,0.00,VWS V14.01,2013-08-26 04:43:00,
2013-08-25 23:48:00,74.8,69.7,30.18,ESE,119,0.0,0.0,84,0.00,,CLR,0.00,VWS V14.01,2013-08-26 04:48:00,
2013-08-25 23:53:00,74.8,69.7,30.18,ESE,119,0.0,0.0,84,0.00,,CLR,0.00,VWS V14.01,2013-08-26 04:53:00,
2013-08-25 23:58:00,74.7,69.6,30.17,ESE,119,0.0,0.0,84,0.00,,CLR,0.00,VWS V14.01,2013-08-26 04:58:00,